Torna al catalogo

GALILEO 15 (267)

AttivoNavigazioneMEO
NORAD 41859·PAYLOAD·🇪🇺 EU

Lanciato Nov 17, 2016 da Guiana Space Centre

Loading…

Prossimi Passaggi (prossime 24 ore)

TLE

AggiornatoSource: CelesTrak SupGP

Epoca: Sep 13, 2026, 23:59 UTC

1 41859C 16069A   26256.99979167  .00000000  00000+0  00000+0 0  2561
2 41859  55.5553  98.6267 0002832   0.1257  57.1027  1.70474048    13

Traccia GALILEO 15 (267) in tempo reale con AllMySat

Download on the App Store